K5BV Weather Reports


time (UTC)temp
C
wind
direction
speed
KPH
gust
KPH
rain 1hr
cm
rain 24hr
cm
rain mn
cm
humidity
%
barometer
mb
20260504060238 21 0 0.0 0.0 0.00 0.00 0.00 76 1018.2
20260504050242 22 0 0.0 0.0 0.00 0.00 0.00 76 1019.3
20260504045237 22 0 0.0 0.0 0.00 0.00 0.00 75 1019.5
20260504044238 22 0 0.0 0.0 0.00 0.00 0.00 74 1019.6
20260504043238 22 0 0.0 0.0 0.00 0.00 0.00 74 1019.5
20260504042238 22 0 0.0 0.0 0.00 0.00 0.00 74 1019.6
20260504041239 22 0 0.0 0.0 0.00 0.00 0.00 74 1019.6
20260504040237 22 0 0.0 0.0 0.00 0.00 0.00 71 1019.5
20260504035239 22 0 0.0 0.0 0.00 0.00 0.00 70 1019.5
20260504034237 22 0 0.0 0.0 0.00 0.00 0.00 72 1019.4
20260504033237 22 0 0.0 0.0 0.00 0.00 0.00 71 1019.4
20260504032237 22 0 0.0 0.0 0.00 0.00 0.00 71 1019.4
20260504031238 22 0 0.0 0.0 0.00 0.00 0.00 71 1019.3
20260504030238 22 0 0.0 0.0 0.00 0.00 0.00 70 1019.3
20260504025238 22 0 0.0 0.0 0.00 0.00 0.00 71 1019.5
20260504024237 22 0 0.0 0.0 0.00 0.00 0.00 70 1019.4
20260504023238 22 0 0.0 0.0 0.00 0.00 0.00 70 1019.4
20260504022238 22 0 0.0 0.0 0.00 0.00 0.00 70 1019.2
20260504021238 22 0 0.0 0.0 0.00 0.00 0.00 69 1019.0
20260504020237 22 0 0.0 0.0 0.00 0.00 0.00 70 1018.9
20260504015239 22 0 0.0 0.0 0.00 0.00 0.00 68 1018.9
20260504014244 22 0 0.0 0.0 0.00 0.00 0.00 70 1018.8
20260504012239 22 0 0.0 0.0 0.00 0.00 0.00 69 1018.8
20260504011239 22 0 0.0 0.0 0.00 0.00 0.00 68 1018.7
20260504010239 23 0 0.0 0.0 0.00 0.00 0.00 66 1018.8
20260504005239 23 0 0.0 0.0 0.00 0.00 0.00 66 1018.8
20260504004239 23 0 0.0 0.0 0.00 0.00 0.00 63 1018.8
20260504003239 24 0 0.0 0.0 0.00 0.00 0.00 62 1019.0
20260504002239 24 0 0.0 0.0 0.00 0.00 0.00 62 1019.0
20260504001238 24 0 0.0 0.0 0.00 0.00 0.00 61 1019.0
20260504000241 25 0 0.0 0.0 0.00 0.00 0.00 60 1019.1
20260503235239 25 0 0.0 0.0 0.00 0.00 0.00 60 1019.0
20260503234239 25 0 0.0 0.0 0.00 0.00 0.00 59 1018.9
20260503233238 25 0 0.0 0.0 0.00 0.00 0.00 60 1019.0
20260503232239 25 0 0.0 0.0 0.00 0.00 0.00 61 1019.3
20260503231239 25 0 0.0 0.0 0.00 0.00 0.00 60 1019.3
20260503230239 25 0 0.0 0.0 0.00 0.00 0.00 61 1019.3
20260503225239 25 0 0.0 0.0 0.00 0.00 0.00 61 1019.4
20260503224239 25 0 0.0 0.0 0.00 0.00 0.00 61 1019.5
20260503223239 25 0 0.0 0.0 0.00 0.00 0.00 59 1019.4
20260503222239 25 0 0.0 0.0 0.00 0.00 0.00 59 1019.4
20260503221238 25 0 0.0 0.0 0.00 0.00 0.00 60 1019.7
20260503220239 26 0 0.0 0.0 0.00 0.00 0.00 57 1019.9
20260503215239 26 0 0.0 0.0 0.00 0.00 0.00 58 1020.0
20260503214239 26 0 0.0 0.0 0.00 0.00 0.00 56 1020.2
20260503213239 27 0 0.0 0.0 0.00 0.00 0.00 55 1020.4
20260503212240 26 0 0.0 0.0 0.00 0.00 0.00 55 1020.6
20260503211239 26 0 0.0 0.0 0.00 0.00 0.00 55 1020.7
20260503210239 26 0 0.0 0.0 0.00 0.00 0.00 56 1020.8
20260503205239 26 0 0.0 0.0 0.00 0.00 0.00 54 1020.8
20260503204239 26 0 0.0 0.0 0.00 0.00 0.00 55 1020.9
20260503203239 26 0 0.0 0.0 0.00 0.00 0.00 55 1021.0
20260503202239 26 0 0.0 0.0 0.00 0.00 0.00 53 1021.2
20260503201239 26 0 0.0 0.0 0.00 0.00 0.00 53 1021.4
20260503200239 26 0 0.0 0.0 0.00 0.00 0.00 53 1021.6
20260503195239 26 0 0.0 0.0 0.00 0.00 0.00 55 1021.8
20260503194239 26 0 0.0 0.0 0.00 0.00 0.00 54 1021.9
20260503193238 26 0 0.0 0.0 0.00 0.00 0.00 53 1022.0
20260503192239 26 0 0.0 0.0 0.00 0.00 0.00 52 1022.1
20260503191239 26 0 0.0 0.0 0.00 0.00 0.00 51 1022.1
20260503190238 26 0 0.0 0.0 0.00 0.00 0.00 51 1022.3
20260503185239 26 0 0.0 0.0 0.00 0.00 0.00 51 1022.4
20260503184239 26 0 0.0 0.0 0.00 0.00 0.00 51 1022.6
20260503183239 26 0 0.0 0.0 0.00 0.00 0.00 50 1022.8
20260503182238 26 0 0.0 0.0 0.00 0.00 0.00 51 1022.9
20260503181238 26 0 0.0 0.0 0.00 0.00 0.00 53 1023.1
20260503180239 26 0 0.0 0.0 0.00 0.00 0.00 52 1023.2
20260503175239 26 0 0.0 0.0 0.00 0.00 0.00 51 1023.2
20260503174239 26 0 0.0 0.0 0.00 0.00 0.00 53 1023.3
20260503173238 25 0 0.0 0.0 0.00 0.00 0.00 56 1023.3
20260503172238 25 0 0.0 0.0 0.00 0.00 0.00 58 1023.5
20260503171238 25 0 0.0 0.0 0.00 0.00 0.00 56 1023.6
20260503170243 25 0 0.0 0.0 0.00 0.00 0.00 60 1023.7
20260503150239 23 0 0.0 0.0 0.00 0.00 0.00 68 1023.7
20260503140238 20 0 0.0 0.0 0.00 0.00 0.00 88 1023.6
20260503131240 18 0 0.0 0.0 0.00 0.00 0.00 92 1023.0
20260503130243 17 0 0.0 0.0 0.00 0.00 0.00 92 1022.6
20260503110239 17 0 0.0 0.0 0.00 0.00 0.00 91 1021.8
20260503100240 17 0 0.0 0.0 0.00 0.00 0.00 92 1021.9
20260503090239 17 0 0.0 0.0 0.00 0.00 0.00 92 1021.9
20260503081239 17 0 0.0 0.0 0.00 0.00 0.00 87 1022.1
20260503080239 18 0 0.0 0.0 0.00 0.00 0.00 85 1022.1
20260503072240 17 0 0.0 0.0 0.00 0.00 0.00 83 1022.2
20260503071240 17 0 0.0 0.0 0.00 0.00 0.00 82 1022.4
20260503070239 18 0 0.0 0.0 0.00 0.00 0.00 81 1022.4